Simultaneous Nadir Overpasses (SNOs) Predictions

Prediction of SNOs between AQUA and NPP Satellite Orbit:

Table of predicted SNOs for the next 14.0 days since TLE Epoch: 1/12/2018
Index Date (AQUA) Time (AQUA) Lat,Lon (AQUA) SZA (AQUA ) Date (NPP) Time (NPP) Lat,Lon (NPP) SZA (NPP ) Distance(km) Time Diff (sec)
1 01/14/2018 06:21:43 76.33, -35.23 118.06 01/14/2018 06:21:34 76.32, -35.31 118.08 2.20 9
2 01/14/2018 07:10:48 -77.36, 136.15 63.15 01/14/2018 07:11:56 -77.36, 136.16 63.21 0.31 68
3 01/16/2018 21:48:54 -75.93, -88.27 61.92 01/16/2018 21:47:51 -75.93, -88.20 61.89 2.03 63
4 01/16/2018 22:38:01 76.84, 82.40 117.04 01/16/2018 22:38:15 76.84, 82.42 117.02 0.67 14
5 01/19/2018 14:05:21 -76.05, 28.01 62.55 01/19/2018 14:04:42 -76.05, 27.97 62.51 1.02 39
6 01/19/2018 14:54:28 76.96,-161.28 116.41 01/19/2018 14:55:06 76.95,-161.35 116.40 1.85 38
7 01/22/2018 06:21:38 -76.65, 145.87 63.77 01/22/2018 06:21:22 -76.66, 145.95 63.78 2.35 16
8 01/22/2018 07:10:47 77.44, -43.53 115.30 01/22/2018 07:11:48 77.45, -43.45 115.23 2.20 61
9 01/24/2018 21:48:59 75.73, 91.17 116.70 01/24/2018 21:47:50 75.73, 91.16 116.76 0.21 69
10 01/24/2018 22:38:04 -76.81, -97.69 64.54 01/24/2018 22:38:12 -76.81, -97.67 64.55 0.37 8




NCC Satellite Simultaneous Nadir Overpasses (SNOs) Prediction Service
